Location: Baili�vre
(50.0696°N, 4.2409°E)
Time: 03:23:07
(UTC+00:00)

Cosmos 676 Rocket - Pass Details

Date: 08 August 2020
Orbit: 755 x 784 km, 74.0° (Epoch: 25 September)

Event Time Altitude Azimuth Distance (km) Brightness Sun altitude
Exits shadow 21:13:56 - 197° (SSW) 2,633 6.5 -15.9°
Reaches altitude 10° 21:14:43 10° 197° (SSW) 2,329 6.2 -15.9°
Maximum altitude 21:20:01 79° 112° (ESE) 803 4.0 -16.5°
Drops below altitude 10° 21:25:23 10° 26° (NNE) 2,353 6.9 -17.0°
Sets 21:27:47 0° 25° (NNE) 3,285 7.7 -17.2°
